Dr. Bill's Marine Weather

Coastal Marine Forecast

       Alabama   Florida   Louisiana   Mississippi

Printer Friendly AL  FL  LA  MS

Data Buoys:   Western Gulf of Mexico    Eastern Gulf of Mexico
**********************************************************************
  Alabama
700 AM CST MON FEB 27 2017

ALZ051>064-271400-
SOUTHWEST ALABAMA
  
CITY           SKY/WX    TMP DP  RH WIND       PRES   REMARKS
MOBILE         PTCLDY    63  57  81 SE5       30.12R                  
BROOKLEY FIELD CLEAR     65  59  81 S9        30.12R                  
EVERGREEN      LGT RAIN  53  45  74 SE16      30.13S                  
**********************************************************************
  Florida
800 AM EST MON FEB 27 2017

FLZ001>010-012>015-112-114-115-271400-
PANHANDLE FLORIDA
  
CITY           SKY/WX    TMP DP  RH WIND       PRES   REMARKS
PENSACOLA      CLEAR     58  52  80 E6        30.16R                  
PENSACOLA NAS  PTCLDY    61  57  87 E7        30.15R                  
MILTON NAS     PTCLDY    49  44  83 E8        30.16                   
CRESTVIEW      PTCLDY    47  42  83 CALM      30.21R                  
DUKE FIELD     FAIR      53  43  70 CALM      30.18R                  
VALPARAISO     PTCLDY    57  49  74 E7        30.18R                  
TRI COUNTY     FAIR      51  45  79 CALM      30.23R                  
PANAMA CITY    FAIR      52  46  80 E7        30.19R                  
TYNDALL AFB    CLEAR     57  53  87 E5        30.20R                  
APALACHICOLA   SUNNY     65  61  87 SE7       30.19R                  

STATION/POSITION SKY/WX   TEMP    WIND        PRES    WAVE   SWELL
                          AIR SEA DIR/SP/G            HT/PER HT/PER
                          (F)     (DEG/KT/KT) (MB)    (FT/S) (FT/S)
30.1N   87.6W              69 68  150/ 14/ 16 1019.8    4/ 6
28.8N   86.0W              71 71              1020.4    5/ 6
PANAMA CITY BEAC           56      60/ 10/ 12 1022.4R
TOWER C                    66     140/ 21/ 22 1022.7R
28.5N   84.5W              69 69  140/ 17/ 21 1021.4R   5/ 6

**********************************************************************
  Louisiana
700 AM CST MON FEB 27 2017

LAZ040-048-061>063-065-066-069-271400-
SOUTHEAST LOUISIANA
  
CITY           SKY/WX    TMP DP  RH WIND       PRES   REMARKS
N.O. INTL ARPT CLOUDY    69  66  90 S12       30.06R                  
N.O. LAKEFRONT CLOUDY    68  64  87 S12       30.07R                  
N.O. DOWNTOWN*   N/A     68  64  87 S10       30.07R                  
RESERVE*       PTSUNNY   69  67  93 SE6       30.05S                  
SLIDELL        CLOUDY    67  63  87 SE8       30.07R                  
BATON ROUGE    LGT RAIN  65  64  97 N3        30.06R FOG              
BOOTHVILLE     PTCLDY    67  65  93 S12       30.09R                  
BELLE CHASSE   CLOUDY    68  65  90 S8        30.06R                  
BOGALUSA*      CLOUDY    61  58  89 CALM      30.09R                  
GALLIANO*      SUNNY     69  64  85 SE9       30.05S                  
NEW ROADS*     LGT RAIN  61  59  93 CALM      30.06R                  
GONZALES*      LGT RAIN  67  66  96 S5        30.05R                  
HAMMOND*       CLOUDY    64  61  88 E6        30.06S                  
HOUMA*         MOCLDY    68  66  94 SE9       30.05R                  
PORT FOURCHON* NOT AVBL                                               

**********************************************************************
  Mississippi
700 AM CST MON FEB 27 2017

MSZ080>082-271400-
COASTAL MISSISSIPPI
  
CITY           SKY/WX    TMP DP  RH WIND       PRES   REMARKS
BAY ST LOUIS   MOCLDY    66  61  82 S6        30.09                   
BILOXI         MOCLDY    67  63  86 S5        30.09R                  
PASCAGOULA     CLEAR     66  60  81 SE7       30.10R                  
GULFPORT       CLOUDY    67  63  87 SE3       30.09R                  
About Us | Coastal Marine Forecast | Offshore Marine Forecast
Gulf Coast Tides | Hourly Weather Observations | Weather Radar
Sea Surface Temperatures | Solar/Lunar Data | Hurricane Advisories | Home
     
USA Logo Dr. Bill's Marine Weather
Last date changed: December 9, 2014 4:08 PM
www.gulfmarineweather.com/hourlyweatherobservations.shtml
Contact Us